This demonstration page uses our WeatherBlox Daily Observations layout. Learn more.

Left ArrowRight Arrow

39.01783, -85.05884

Hourly Observations for September 6, 2018

Temp ( °F °C ) Dew Point ( °F °C ) Humidity (%) Winds ( mph kmh ) Pressure ( in mb ) Visibility ( mi km ) Precip ( " mm )
12:52 am 00:52 Cloudy 72 22.2 70 21.1 94 94 S 5 7 30.17 1022 10 16 N/A
1:52 am 01:52 Cloudy 71 21.7 71 21.7 100 100 S 6 9 30.17 1022 9 14 N/A
2:52 am 02:52 Cloudy 73 22.8 70 21.1 90 90 S 5 7 30.15 1021 10 16 N/A
3:52 am 03:52 Cloudy 73 22.8 70 21.1 90 90 N N/A 30.16 1021 10 16 N/A
4:52 am 04:52 Mostly Cloudy 72 22.2 70 21.1 94 94 N N/A 30.16 1021 10 16 N/A
5:52 am 05:52 Mostly Cloudy 71 21.7 69 20.6 94 94 S 8 13 30.16 1021 10 16 N/A
6:52 am 06:52 Mostly Cloudy 70 21.1 69 20.6 97 97 SSE 5 7 30.17 1022 10 16 N/A
7:52 am 07:52 Mostly Cloudy 74 23.3 71 21.7 91 91 N N/A 30.19 1022 10 16 N/A
8:52 am 08:52 Mostly Cloudy 78 25.6 72 22.2 82 82 SE 3 6 30.19 1023 10 16 N/A
9:52 am 09:52 Partly Cloudy 81 27.2 73 22.8 77 77 VRB 3 6 30.20 1023 10 16 N/A
10:52 am 10:52 Partly Cloudy 85 29.4 74 23.3 70 70 N N/A 30.21 1023 10 16 N/A
11:52 am 11:52 Mostly Cloudy 85 29.4 73 22.8 68 68 N N/A 30.19 1023 10 16 N/A
12:52 pm 12:52 Partly Cloudy 87 30.6 72 22.2 61 61 N 5 7 30.18 1022 10 16 N/A
1:52 pm 13:52 Partly Cloudy 89 31.7 71 21.7 55 55 N 5 7 30.16 1021 10 16 N/A
2:52 pm 14:52 Partly Cloudy 88 31.1 69 20.6 54 54 W 5 7 30.15 1021 10 16 N/A
3:52 pm 15:52 Mostly Cloudy 87 30.6 70 21.1 57 57 WSW 6 9 30.12 1020 10 16 N/A
4:13 pm 16:13 Mostly Cloudy with Thunderstorms 89 31.7 69 20.6 52 52 W 7 11 30.09 1019 10 16 N/A
4:24 pm 16:24 Mostly Cloudy with Thunderstorms 89 31.7 71 21.7 55 55 NNE 16 26 30.09 1019 10 16 N/A
4:52 pm 16:52 Cloudy with Thunderstorms 82 27.8 68 20 63 63 E 14 22 30.14 1021 10 16 N/A
4:59 pm 16:59 Cloudy with Thunderstorms 82 27.8 68 20 63 63 ENE 15 24 30.15 1021 10 16 N/A
5:36 pm 17:36 Mostly Cloudy with Thunderstorms 75 23.9 72 22.2 90 90 N 15 24 30.15 1021 9 14 N/A
5:52 pm 17:52 Cloudy with Thunderstorms 76 24.4 72 22.2 88 88 NNE 8 13 30.16 1021 10 16 N/A
6:14 pm 18:14 Cloudy 76 24.4 72 22.2 88 88 E 10 17 30.15 1021 10 16 N/A
6:52 pm 18:52 Cloudy with Light Rain 76 24.4 71 21.7 85 85 N 6 9 30.15 1021 10 16 N/A
7:52 pm 19:52 Cloudy 76 24.4 71 21.7 85 85 ESE 5 7 30.15 1021 10 16 N/A
8:52 pm 20:52 Cloudy 75 23.9 71 21.7 88 88 N N/A 30.16 1022 10 16 N/A
9:52 pm 21:52 Cloudy 76 24.4 72 22.2 88 88 E 6 9 30.18 1022 10 16 N/A
10:52 pm 22:52 Mostly Cloudy 75 23.9 72 22.2 90 90 ENE 6 9 30.16 1022 10 16 N/A
11:52 pm 23:52 Cloudy 74 23.3 71 21.7 91 91 E 3 6 30.15 1021 10 16 N/A

Powered by AerisWeather